Slidell, LA

10:03 AM CDT on April 26, 2017 (GMT -0500)
Slidell

Weather History for KASD - May, 2013

Change the Weather History Date:

Tuesday, May 28, 2013

  Actual Average (KNEW) Record (KNEW)
Temperature  
Mean Temperature 72 °F -  
Max Temperature 84 °F 87 °F 96 °F (1953)
Min Temperature 60 °F 72 °F 54 °F (1961)
Cooling Degree Days 7    
Growing Degree Days 22 (Base 50)    
Moisture  
Dew Point 65 °F    
Average Humidity 76    
Maximum Humidity 97    
Minimum Humidity 44    
Precipitation  
Precipitation 0.14 in - - ()
Sea Level Pressure  
Sea Level Pressure 30.04 in    
Wind  
Wind Speed 4 mph (SE)    
Max Wind Speed 12 mph    
Max Gust Speed 16 mph    
Visibility 10 miles    
Events Rain    
Averages and records for this station are not official NWS values.
T = Trace of Precipitation, MM = Missing Value Source: NWS Daily Summary

Daily Weather History Graph

Daily Weather History Graph

Search for Another Location

Airport or City:

Trip Planner

Search our weather history database for the weather conditions in past years. The results will help you decide how hot, cold, wet, or windy it might be!

Date:

Astronomy

May. 28, 2013 Rise Set
Actual Time 5:58 AM CDT 7:54 PM CDT
Civil Twilight 5:31 AM CDT 8:21 PM CDT
Nautical Twilight 4:59 AM CDT 8:54 PM CDT
Astronomical Twilight 4:24 AM CDT 9:29 PM CDT
Moon 11:27 PM CDT (5/28) 9:40 AM CDT (5/28)
Length of Visible Light 14h 49m
Length of Day
13h 55m
Waning Gibbous, 82% of the Moon is Illuminated
May 28
Waning Gibbous
May 31
Last Quarter
Jun 8
New
Jun 16
First Quarter
Jun 23
Full

Hourly Weather History & Observations

Time (CDT) Temp. Heat Index Dew Point Humidity Pressure Visibility Wind Dir Wind Speed Gust Speed Precip Events Conditions
12:53 AM 64.0 °F - 63.0 °F 96% 30.08 in 10.0 mi Calm Calm - N/A   Clear
1:53 AM 63.0 °F - 62.1 °F 97% 30.07 in 10.0 mi Calm Calm - N/A   Clear
2:53 AM 63.0 °F - 61.0 °F 93% 30.04 in 10.0 mi Calm Calm - N/A   Clear
3:53 AM 62.1 °F - 60.1 °F 93% 30.04 in 10.0 mi Calm Calm - N/A   Clear
4:53 AM 61.0 °F - 59.0 °F 93% 30.04 in 10.0 mi Calm Calm - N/A   Clear
5:53 AM 60.1 °F - 57.9 °F 93% 30.05 in 10.0 mi Calm Calm - N/A   Clear
6:53 AM 63.0 °F - 61.0 °F 93% 30.04 in 10.0 mi Calm Calm - N/A   Clear
7:53 AM 73.0 °F - 69.1 °F 87% 30.05 in 10.0 mi Calm Calm - N/A   Clear
8:53 AM 77.0 °F - 69.1 °F 76% 30.05 in 10.0 mi SE 9.2 mph - N/A   Clear
9:53 AM 80.1 °F 82.7 °F 68.0 °F 67% 30.06 in 10.0 mi ESE 9.2 mph - N/A   Mostly Cloudy
10:53 AM 81.0 °F 83.3 °F 66.9 °F 62% 30.06 in 10.0 mi SE 10.4 mph - N/A   Mostly Cloudy
11:53 AM 81.0 °F 83.3 °F 66.9 °F 62% 30.07 in 10.0 mi ESE 11.5 mph - N/A   Overcast
12:53 PM 82.0 °F 84.1 °F 66.0 °F 58% 30.07 in 10.0 mi SE 10.4 mph - N/A   Mostly Cloudy
1:53 PM 82.9 °F 84.6 °F 64.9 °F 54% 30.06 in 10.0 mi Variable 6.9 mph - N/A   Partly Cloudy
2:53 PM 84.0 °F 84.5 °F 62.1 °F 47% 30.04 in 10.0 mi SE 9.2 mph 16.1 mph N/A   Clear
3:53 PM 84.0 °F 84.5 °F 62.1 °F 47% 30.04 in 10.0 mi SSE 11.5 mph - N/A   Clear
4:53 PM 82.9 °F 82.8 °F 59.0 °F 44% 30.02 in 10.0 mi SE 9.2 mph - N/A   Clear
5:53 PM 82.9 °F 82.8 °F 59.0 °F 44% 30.02 in 10.0 mi SE 9.2 mph - N/A   Clear
6:53 PM 81.0 °F 82.5 °F 64.0 °F 56% 30.01 in 10.0 mi SE 9.2 mph - N/A   Clear
7:53 PM 78.1 °F - 70.0 °F 76% 30.01 in 10.0 mi SE 5.8 mph - N/A   Clear
8:53 PM 75.9 °F - 71.1 °F 85% 30.02 in 10.0 mi Calm Calm - N/A   Clear
9:53 PM 75.9 °F - 72.0 °F 87% 30.02 in 10.0 mi ESE 4.6 mph - N/A   Mostly Cloudy
10:53 PM 75.9 °F - 72.0 °F 87% 30.04 in 10.0 mi SE 6.9 mph - N/A   Mostly Cloudy
11:32 PM 73.4 °F - 71.6 °F 94% 30.04 in 2.0 mi SE 8.1 mph - 0.12 in Rain Rain
11:41 PM 73.4 °F - 71.6 °F 94% 30.04 in 5.0 mi SE 3.5 mph - 0.14 in Rain Light Rain
11:53 PM 73.0 °F - 72.0 °F 96% 30.04 in 10.0 mi Calm Calm - 0.14 in   Overcast